Weather History for Petersburg, WV

Change the Weather History Date:

Thursday, November 8, 2012

  Actual Average (KEKN) Record (KEKN)
Temperature  
Mean Temperature 39 °F 44 °F  
Max Temperature 53 °F 57 °F 75 °F (1916)
Min Temperature 26 °F 32 °F 10 °F (1960)
Degree Days  
Heating Degree Days 26 21  
Month to date heating degree days 157  
Since 1 July heating degree days 748  
Cooling Degree Days 0 0  
Month to date cooling degree days 0  
Year to date cooling degree days 475  
Moisture  
Dew Point 24 °F    
Average Humidity 61    
Maximum Humidity 92    
Minimum Humidity 23    
Precipitation  
Precipitation 0.00 in 0.10 in 1.62 in (1996)
Month to date precipitation 0.88  
Year to date precipitation 40.17  
Snow  
Snow 0.00 in - - ()
Month to date snowfall  
Since 1 September snowfall  
Snow Depth -    
Sea Level Pressure  
Sea Level Pressure 30.07 in    
Wind  
Wind Speed 2 mph (NW)    
Max Wind Speed 20 mph    
Max Gust Speed 24 mph    
Visibility 8 miles    
Events      
T = Trace of Precipitation, MM = Missing Value Source: NWS Daily Summary

Daily Weather History Graph

Daily Weather History Graph

Search for Another Location

Airport:

Trip Planner

Search our weather history database for the weather conditions in past years. The results will help you decide how hot, cold, wet, or windy it might be!

Date:

Astronomy

Nov. 08, 2012 Rise Set
Actual Time 6:52 AM EST 5:08 PM EST
Civil Twilight 6:24 AM EST 5:36 PM EST
Nautical Twilight 5:52 AM EST 6:08 PM EST
Astronomical Twilight 5:20 AM EST 6:39 PM EST
Moon 12:48 AM EST (11/8) 1:45 PM EST (11/8)
Length of Visible Light 11h 12m
Length of Day
10h 15m
Waning Crescent, 33% of the Moon is Illuminated
Nov 8
Waning Crescent
Nov 13
New
Nov 20
First Quarter
Nov 28
Full
Dec 6
Last Quarter

Hourly Weather History & Observations

Time (EST) Temp. Windchill Dew Point Humidity Pressure Visibility Wind Dir Wind Speed Gust Speed Precip Events Conditions
12:15 AM 33.3 °F - 30.4 °F 89% 30.00 in 5.0 mi Calm Calm - N/A   Clear
12:35 AM 32.4 °F - 29.5 °F 89% 30.00 in 7.0 mi Calm Calm - N/A   Clear
12:55 AM 31.8 °F - 28.9 °F 89% 30.00 in 4.0 mi Calm Calm - N/A   Clear
1:15 AM 31.8 °F - 28.8 °F 88% 30.00 in 7.0 mi Calm Calm - N/A   Clear
1:35 AM 32.0 °F - 29.3 °F 90% 30.00 in 5.0 mi Calm Calm - N/A   Clear
1:55 AM 31.5 °F - 28.8 °F 90% 30.00 in 5.0 mi Calm Calm - N/A   Clear
2:15 AM 32.0 °F - 29.5 °F 90% 30.00 in 5.0 mi Calm Calm - N/A   Clear
2:35 AM 31.8 °F - 29.3 °F 90% 30.01 in 5.0 mi Calm Calm - N/A   Clear
2:55 AM 30.7 °F - 28.0 °F 90% 30.00 in 5.0 mi Calm Calm - N/A   Clear
3:15 AM 30.6 °F - 28.0 °F 90% 30.01 in 5.0 mi Calm Calm - N/A   Clear
3:35 AM 30.7 °F - 28.0 °F 90% 30.01 in 5.0 mi Calm Calm - N/A   Clear
3:55 AM 30.7 °F - 28.0 °F 90% 30.01 in 5.0 mi Calm Calm - N/A   Clear
4:15 AM 30.0 °F - 27.5 °F 90% 30.01 in 5.0 mi Calm Calm - N/A   Clear
4:35 AM 29.7 °F - 27.3 °F 91% 30.02 in 4.0 mi Calm Calm - N/A   Clear
4:55 AM 27.9 °F - 25.5 °F 91% 30.02 in 4.0 mi Calm Calm - N/A   Clear
5:15 AM 28.4 °F - 26.4 °F 92% 30.02 in 4.0 mi Calm Calm - N/A   Clear
5:35 AM 27.1 °F - 25.2 °F 92% 30.02 in 4.0 mi Calm Calm - N/A   Clear
5:55 AM 26.6 °F - 24.6 °F 92% 30.02 in 5.0 mi Calm Calm - N/A   Clear
6:15 AM 27.1 °F - 25.0 °F 92% 30.03 in 4.0 mi Calm Calm - N/A   Clear
6:35 AM 26.2 °F - 24.1 °F 92% 30.03 in 5.0 mi Calm Calm - N/A   Clear
6:55 AM 26.8 °F - 24.6 °F 92% 30.05 in 5.0 mi Calm Calm - N/A   Clear
7:15 AM 27.1 °F - 25.0 °F 92% 30.05 in 4.0 mi Calm Calm - N/A   Clear
7:55 AM 28.8 °F - 26.6 °F 92% 30.07 in 2.5 mi Calm Calm - N/A   Clear
8:15 AM 29.5 °F - 27.1 °F 91% 30.08 in 4.0 mi Calm Calm - N/A   Clear
8:35 AM 29.7 °F - 27.1 °F 90% 30.09 in 4.0 mi Calm Calm - N/A   Clear
8:55 AM 31.1 °F - 28.4 °F 90% 30.09 in 3.0 mi Calm Calm - N/A   Clear
9:15 AM 32.5 °F - 30.2 °F 91% 30.09 in 4.0 mi Calm Calm - N/A   Clear
9:35 AM 36.9 °F - 31.3 °F 80% 30.09 in 7.0 mi Calm Calm - N/A   Clear
9:55 AM 40.3 °F - 31.6 °F 71% 30.09 in 7.0 mi Calm Calm - N/A   Clear
10:15 AM 44.8 °F - 25.9 °F 48% 30.09 in 5.0 mi Calm Calm - N/A   Haze
10:35 AM 47.5 °F - 17.1 °F 30% 30.09 in 10.0 mi Calm Calm - N/A   Clear
10:55 AM 49.6 °F - 14.0 °F 24% 30.09 in 10.0 mi Calm Calm - N/A   Clear
11:15 AM 50.4 °F - 14.5 °F 24% 30.08 in 10.0 mi NW 8.1 mph - N/A   Clear
11:35 AM 50.2 °F - 13.8 °F 23% 30.09 in 10.0 mi NNW 6.9 mph - N/A   Clear
11:55 AM 50.0 °F - 13.5 °F 23% 30.08 in 10.0 mi Calm Calm - N/A   Clear
12:15 PM 50.5 °F - 15.1 °F 24% 30.07 in 10.0 mi West 12.7 mph - N/A   Clear
12:35 PM 50.7 °F - 16.2 °F 25% 30.07 in 10.0 mi WNW 12.7 mph 18.4 mph N/A   Clear
12:55 PM 50.9 °F - 15.4 °F 24% 30.06 in 10.0 mi NW 9.2 mph 18.4 mph N/A   Clear
1:15 PM 51.6 °F - 16.9 °F 25% 30.05 in 10.0 mi WNW 10.4 mph - N/A   Clear
1:35 PM 51.8 °F - 17.1 °F 25% 30.05 in 10.0 mi NNW 9.2 mph 17.3 mph N/A   Clear
1:55 PM 52.2 °F - 16.5 °F 24% 30.05 in 10.0 mi North 12.7 mph 16.1 mph N/A   Clear
2:15 PM 52.7 °F - 17.1 °F 25% 30.05 in 10.0 mi Calm Calm - N/A   Clear
2:35 PM 52.7 °F - 16.9 °F 24% 30.05 in 10.0 mi North 10.4 mph - N/A   Clear
2:55 PM 52.7 °F - 17.4 °F 25% 30.05 in 10.0 mi North 5.8 mph - N/A   Clear
3:15 PM 52.7 °F - 18.9 °F 26% 30.05 in 10.0 mi NNE 8.1 mph - N/A   Clear
3:35 PM 52.3 °F - 19.0 °F 27% 30.05 in 10.0 mi NNE 4.6 mph - N/A   Clear
3:55 PM 52.0 °F - 19.6 °F 28% 30.05 in 10.0 mi Calm Calm - N/A   Clear
4:15 PM 51.4 °F - 19.9 °F 29% 30.05 in 10.0 mi North 8.1 mph - N/A   Clear
4:35 PM 50.5 °F - 21.0 °F 31% 30.05 in 10.0 mi North 3.5 mph - N/A   Clear
4:55 PM 48.9 °F - 21.6 °F 34% 30.06 in 10.0 mi Calm Calm - N/A   Clear
5:15 PM 46.9 °F - 23.0 °F 39% 30.07 in 10.0 mi North 4.6 mph - N/A   Clear
5:35 PM 45.7 °F - 23.4 °F 41% 30.08 in 10.0 mi Calm Calm - N/A   Clear
5:55 PM 43.5 °F - 24.6 °F 47% 30.09 in 10.0 mi Calm Calm - N/A   Clear
6:15 PM 42.1 °F - 25.3 °F 52% 30.10 in 10.0 mi Calm Calm - N/A   Clear
6:35 PM 43.9 °F 38.3 °F 27.1 °F 52% 30.10 in 10.0 mi WNW 10.4 mph - N/A   Clear
6:55 PM 44.8 °F 38.3 °F 26.2 °F 48% 30.11 in 10.0 mi WNW 13.8 mph - N/A   Clear
7:15 PM 44.6 °F 37.2 °F 25.9 °F 48% 30.11 in 10.0 mi West 17.3 mph 23.0 mph N/A   Clear
7:35 PM 44.4 °F 36.4 °F 26.1 °F 49% 30.12 in 10.0 mi West 19.6 mph 24.2 mph N/A   Clear
7:55 PM 44.6 °F 38.1 °F 26.1 °F 48% 30.12 in 10.0 mi WNW 13.8 mph - N/A   Clear
8:15 PM 43.9 °F 37.2 °F 26.2 °F 50% 30.13 in 10.0 mi WNW 13.8 mph - N/A   Clear
8:35 PM 43.0 °F 36.4 °F 26.6 °F 52% 30.13 in 10.0 mi WNW 12.7 mph - N/A   Clear
8:55 PM 42.8 °F 36.2 °F 27.1 °F 54% 30.14 in 10.0 mi WNW 12.7 mph - N/A   Clear
9:15 PM 42.1 °F - 27.0 °F 55% 30.15 in 10.0 mi Calm Calm - N/A   Clear
9:35 PM 41.4 °F - 27.5 °F 58% 30.15 in 10.0 mi Calm Calm - N/A   Clear
9:55 PM 40.3 °F - 27.7 °F 61% 30.16 in 10.0 mi Calm Calm - N/A   Clear
10:15 PM 39.9 °F - 27.9 °F 62% 30.16 in 10.0 mi Calm Calm - N/A   Clear
10:35 PM 36.0 °F - 27.5 °F 71% 30.16 in 10.0 mi Calm Calm - N/A   Clear
10:55 PM 35.4 °F - 26.8 °F 71% 30.16 in 10.0 mi Calm Calm - N/A   Clear
11:15 PM 34.2 °F - 27.1 °F 75% 30.16 in 10.0 mi Calm Calm - N/A   Clear
11:35 PM 34.3 °F - 27.7 °F 77% 30.16 in 10.0 mi Calm Calm - N/A   Clear
11:55 PM 33.4 °F - 27.5 °F 79% 30.16 in 10.0 mi Calm Calm - N/A   Clear